Regional Weather Roundup
Issued by NWS Raleigh/Durham, NC

Home | Current Version | Previous Version | Text Only | Print | Product List | Glossary On
Versions: 1 2 3 4 5 6 7 8 9 10 11 12 13 14 15 16 17 18 19 20 21 22 23 24 25 26 27
000
ASUS42 KRAH 241510
RWRRAH
NORTH CAROLINA WEATHER ROUNDUP
NATIONAL WEATHER SERVICE RALEIGH NC
1100 AM EDT SUN JUL 24 2016

NOTE: "FAIR" INDICATES FEW OR NO CLOUDS BELOW 12,000 FEET WITH NO
SIGNIFICANT WEATHER AND/OR OBSTRUCTIONS TO VISIBILITY.

NCZ001-053-055-056-065-067-241600-
WESTERN NORTH CAROLINA

CITY           SKY/WX    TMP DP  RH WIND       PRES   REMARKS
ASHEVILLE      SUNNY     81  68  64 N7        30.14F
JEFFERSON      SUNNY     80  66  63 CALM      30.19S
MORGANTON      SUNNY     85  68  56 CALM      30.13R
HICKORY        SUNNY     85  73  67 CALM      30.07S
RUTHERFORDTON    N/A     83  74  74 CALM      30.09R
MOUNT AIRY     SUNNY     88  75  65 SE5       30.09R HX  97
BOONE          MOSUNNY  N/A N/A N/A CALM      30.20S
$$

NCZ021-022-025-041-071-084-088-241600-
CENTRAL NORTH CAROLINA

CITY           SKY/WX    TMP DP  RH WIND       PRES   REMARKS
CHARLOTTE      PTSUNNY   87  71  58 W6        30.06S
GREENSBORO     CLOUDY    88  71  57 VRB3      30.05S
WINSTON-SALEM  SUNNY     87  72  60 VRB5      30.07S
RALEIGH-DURHAM PTSUNNY   87  74  64 SW5       30.04R HX  95
FORT BRAGG     SUNNY     88  74  63 CALM      30.02S HX  97
FAYETTEVILLE   SUNNY     89  73  59 S3        30.03S HX  97
BURLINGTON     SUNNY     87  74  64 SW5       30.04S HX  95
LAURINBURG     MOSUNNY   88  75  65 VRB3      30.04S HX  97
$$

NCZ011-015-027-028-043-044-047-080-103-241600-
NORTHEASTERN NORTH CAROLINA

CITY           SKY/WX    TMP DP  RH WIND       PRES   REMARKS
ROCKY MT-WILSO SUNNY     88  77  69 S3        30.03S HX 100
GREENVILLE     SUNNY     88  77  70 CALM      30.04S HX 100
WASHINGTON     SUNNY     87  77  73 SW3       30.03S HX  98
ELIZABETH CITY SUNNY     89  77  67 SW9       30.01R HX 101
MANTEO           N/A     87  78  76 W6        30.02S HX 100
CAPE HATTERAS  MOSUNNY   84  78  82 SW8       30.04R HX  95
$$

NCZ078-087-090-091-093-098-101-241600-
SOUTHEASTERN NORTH CAROLINA

CITY           SKY/WX    TMP DP  RH WIND       PRES   REMARKS
LUMBERTON      MOSUNNY   88  76  67 NW5       30.03R HX  99
GOLDSBORO      SUNNY     89  77  67 SW6       30.02R HX 101
KINSTON        SUNNY     88  75  66 SW3       30.04R HX  97
KENANSVILLE    NOT AVBL
NEW BERN       SUNNY     88  77  69 S9        30.04S HX 100
CHERRY POINT   MOSUNNY   89  76  65 SW7       30.05R HX 100
BEAUFORT       PTSUNNY   86  78  77 SW10      30.04S HX  98
JACKSONVILLE   MOSUNNY   88  76  67 VRB3      30.03S HX  99
WILMINGTON     PTSUNNY   87  76  69 W7        30.04R HX  97
$$





USA.gov is the U.S. government's official web portal to all federal, state and local government web resources and services.